Location: Anjeux
(47.8815°N, 6.2076°E)
Time: 10:53:35
(UTC+00:00)

AO-27 - Pass Details

Date: 14 December 2021
Orbit: 784 x 798 km, 98.9° (Epoch: 23 January)

Event Time Altitude Azimuth Distance (km) Brightness Sun altitude
Rises 19:39:38 0° 218° (SW) 3,292 11.2 -38.5°
Reaches altitude 10° 19:43:19 10° 245° (WSW) 2,370 10.7 -39.1°
Maximum altitude 19:45:44 13° 273° (W) 2,159 10.5 -39.5°
Drops below altitude 10° 19:48:08 10° 301° (WNW) 2,378 10.7 -39.9°
Sets 19:51:53 0° 328° (NNW) 3,314 11.4 -40.6°
